Time,TemperatureF,DewpointF,PressureIn,WindDirection,WindDirectionDegrees,WindSpeedMPH,WindSpeedGustMPH,Humidity,HourlyPrecipIn,Conditions,Clouds,dailyrainin,SoftwareType,DateUTC
2013-08-13 00:05:00,69.5,67.0,29.86,WNW,287,0.0,-999.0,92,-99.99,,,0.00,weatherlink.com 1.10,2013-08-13 05:05:00,
2013-08-13 00:20:00,69.4,67.0,29.86,WNW,287,0.0,-999.0,93,-99.99,,,0.00,weatherlink.com 1.10,2013-08-13 05:20:00,
2013-08-13 00:35:00,69.1,67.0,29.86,WNW,289,0.0,-999.0,93,-99.99,,,0.00,weatherlink.com 1.10,2013-08-13 05:35:00,
2013-08-13 00:50:00,69.0,67.0,29.86,WNW,289,0.0,-999.0,93,-99.99,,,0.00,weatherlink.com 1.10,2013-08-13 05:50:00,
2013-08-13 01:05:00,68.7,67.0,29.86,WNW,290,0.0,-999.0,93,-99.99,,,0.00,weatherlink.com 1.10,2013-08-13 06:05:00,
2013-08-13 01:20:00,68.3,67.0,29.86,WNW,302,0.0,-999.0,94,-99.99,,,0.00,weatherlink.com 1.10,2013-08-13 06:20:00,
2013-08-13 01:35:00,67.8,66.0,29.86,NW,306,0.0,-999.0,94,-99.99,,,0.00,weatherlink.com 1.10,2013-08-13 06:35:00,
2013-08-13 01:51:00,67.3,66.0,29.85,NW,306,0.0,-999.0,94,-99.99,,,0.00,weatherlink.com 1.10,2013-08-13 06:51:00,
2013-08-13 02:05:00,67.2,66.0,29.85,NW,313,0.0,-999.0,94,-99.99,,,0.00,weatherlink.com 1.10,2013-08-13 07:05:00,
2013-08-13 02:20:00,66.9,65.0,29.85,NW,313,0.0,-999.0,94,-99.99,,,0.00,weatherlink.com 1.10,2013-08-13 07:20:00,
2013-08-13 02:35:00,66.7,65.0,29.86,NW,313,0.0,-999.0,95,-99.99,,,0.00,weatherlink.com 1.10,2013-08-13 07:35:00,
2013-08-13 02:50:00,66.5,65.0,29.86,NW,313,0.0,-999.0,95,-99.99,,,0.00,weatherlink.com 1.10,2013-08-13 07:50:00,
2013-08-13 03:05:00,66.0,65.0,29.86,NW,314,0.0,-999.0,95,-99.99,,,0.00,weatherlink.com 1.10,2013-08-13 08:05:00,
2013-08-13 03:20:00,65.7,64.0,29.86,NW,314,0.0,-999.0,95,-99.99,,,0.00,weatherlink.com 1.10,2013-08-13 08:20:00,
2013-08-13 03:35:00,65.4,64.0,29.86,NW,314,0.0,-999.0,95,-99.99,,,0.00,weatherlink.com 1.10,2013-08-13 08:35:00,
2013-08-13 03:51:00,65.2,64.0,29.87,NNE,22,0.0,-999.0,95,-99.99,,,0.00,weatherlink.com 1.10,2013-08-13 08:51:00,
2013-08-13 04:05:00,65.0,64.0,29.87,NNE,22,0.0,-999.0,95,-99.99,,,0.00,weatherlink.com 1.10,2013-08-13 09:05:00,
2013-08-13 04:20:00,65.1,64.0,29.86,NNE,19,0.0,-999.0,96,-99.99,,,0.00,weatherlink.com 1.10,2013-08-13 09:20:00,
2013-08-13 04:35:00,65.2,64.0,29.87,NNE,19,0.0,-999.0,96,-99.99,,,0.00,weatherlink.com 1.10,2013-08-13 09:35:00,
2013-08-13 04:50:00,65.4,64.0,29.88,NNE,19,0.0,-999.0,96,-99.99,,,0.00,weatherlink.com 1.10,2013-08-13 09:50:00,
2013-08-13 05:05:00,65.6,65.0,29.88,NNE,28,0.0,-999.0,96,-99.99,,,0.00,weatherlink.com 1.10,2013-08-13 10:05:00,
2013-08-13 05:20:00,65.5,64.0,29.88,NNE,19,0.0,-999.0,96,-99.99,,,0.00,weatherlink.com 1.10,2013-08-13 10:20:00,
2013-08-13 05:35:00,65.2,64.0,29.89,NE,35,0.0,-999.0,96,-99.99,,,0.00,weatherlink.com 1.10,2013-08-13 10:35:00,
2013-08-13 05:50:00,64.9,64.0,29.91,NNE,20,0.0,-999.0,96,-99.99,,,0.00,weatherlink.com 1.10,2013-08-13 10:50:00,
2013-08-13 06:06:00,64.5,63.0,29.91,NE,36,0.0,-999.0,96,-99.99,,,0.00,weatherlink.com 1.10,2013-08-13 11:06:00,
2013-08-13 06:21:00,64.1,63.0,29.91,NE,34,6.0,-999.0,96,-99.99,,,0.00,weatherlink.com 1.10,2013-08-13 11:21:00,
2013-08-13 06:36:00,63.7,62.0,29.93,NNE,27,0.0,-999.0,95,-99.99,,,0.00,weatherlink.com 1.10,2013-08-13 11:36:00,
2013-08-13 06:51:00,63.7,62.0,29.93,NE,41,3.0,-999.0,94,-99.99,,,0.00,weatherlink.com 1.10,2013-08-13 11:51:00,
2013-08-13 07:06:00,63.8,62.0,29.93,NNE,25,0.0,-999.0,92,-99.99,,,0.00,weatherlink.com 1.10,2013-08-13 12:06:00,
2013-08-13 07:21:00,64.1,61.0,29.93,NE,43,6.0,-999.0,90,-99.99,,,0.00,weatherlink.com 1.10,2013-08-13 12:21:00,
2013-08-13 07:36:00,64.4,61.0,29.94,North,10,0.0,-999.0,88,-99.99,,,0.00,weatherlink.com 1.10,2013-08-13 12:36:00,
2013-08-13 07:51:00,64.3,61.0,29.94,NW,315,5.0,-999.0,88,-99.99,,,0.00,weatherlink.com 1.10,2013-08-13 12:51:00,
2013-08-13 08:06:00,64.6,61.0,29.95,NE,36,2.0,-999.0,88,-99.99,,,0.00,weatherlink.com 1.10,2013-08-13 13:06:00,
2013-08-13 08:21:00,65.1,61.0,29.95,NNE,28,6.0,-999.0,86,-99.99,,,0.00,weatherlink.com 1.10,2013-08-13 13:21:00,
2013-08-13 08:36:00,65.4,61.0,29.95,NE,36,0.0,-999.0,85,-99.99,,,0.00,weatherlink.com 1.10,2013-08-13 13:36:00,
2013-08-13 08:51:00,65.6,60.0,29.97,ENE,68,1.0,-999.0,83,-99.99,,,0.00,weatherlink.com 1.10,2013-08-13 13:51:00,
2013-08-13 09:06:00,65.3,60.0,29.98,NE,36,1.0,-999.0,82,-99.99,,,0.00,weatherlink.com 1.10,2013-08-13 14:06:00,
2013-08-13 09:21:00,66.3,60.0,29.98,NE,42,0.0,-999.0,81,-99.99,,,0.00,weatherlink.com 1.10,2013-08-13 14:21:00,
2013-08-13 09:36:00,66.9,60.0,29.99,North,355,7.0,-999.0,78,-99.99,,,0.00,weatherlink.com 1.10,2013-08-13 14:36:00,
2013-08-13 09:51:00,67.6,61.0,29.99,NE,42,9.0,-999.0,78,-99.99,,,0.00,weatherlink.com 1.10,2013-08-13 14:51:00,
2013-08-13 10:07:00,67.0,60.0,29.99,NNE,26,1.0,-999.0,77,-99.99,,,0.00,weatherlink.com 1.10,2013-08-13 15:07:00,
2013-08-13 10:22:00,68.4,60.0,30.00,NE,47,5.0,-999.0,74,-99.99,,,0.00,weatherlink.com 1.10,2013-08-13 15:22:00,
2013-08-13 10:37:00,69.4,60.0,30.00,NE,40,2.0,-999.0,73,-99.99,,,0.00,weatherlink.com 1.10,2013-08-13 15:37:00,
2013-08-13 10:52:00,69.8,60.0,30.00,NE,51,0.0,-999.0,71,-99.99,,,0.00,weatherlink.com 1.10,2013-08-13 15:52:00,
2013-08-13 11:06:00,69.7,60.0,30.01,North,5,0.0,-999.0,72,-99.99,,,0.00,weatherlink.com 1.10,2013-08-13 16:06:00,
2013-08-13 11:21:00,70.2,61.0,30.02,NE,40,6.0,-999.0,72,-99.99,,,0.00,weatherlink.com 1.10,2013-08-13 16:21:00,
2013-08-13 11:36:00,71.2,60.0,30.02,NE,46,4.0,-999.0,68,-99.99,,,0.00,weatherlink.com 1.10,2013-08-13 16:36:00,
2013-08-13 11:51:00,71.4,59.0,30.02,ENE,74,4.0,-999.0,66,-99.99,,,0.00,weatherlink.com 1.10,2013-08-13 16:51:00,
2013-08-13 12:07:00,72.0,59.0,30.01,North,351,2.0,-999.0,64,-99.99,,,0.00,weatherlink.com 1.10,2013-08-13 17:07:00,
2013-08-13 12:22:00,71.5,58.0,30.02,NNE,16,0.0,-999.0,63,-99.99,,,0.00,weatherlink.com 1.10,2013-08-13 17:22:00,
2013-08-13 12:37:00,72.0,57.0,30.02,NNE,28,7.0,-999.0,60,-99.99,,,0.00,weatherlink.com 1.10,2013-08-13 17:37:00,
2013-08-13 12:52:00,72.4,57.0,30.02,NW,318,2.0,-999.0,59,-99.99,,,0.00,weatherlink.com 1.10,2013-08-13 17:52:00,
2013-08-13 13:08:00,71.9,58.0,30.02,North,5,5.0,-999.0,61,-99.99,,,0.00,weatherlink.com 1.10,2013-08-13 18:08:00,
2013-08-13 13:23:00,72.8,56.0,30.01,North,5,0.0,-999.0,56,-99.99,,,0.00,weatherlink.com 1.10,2013-08-13 18:23:00,
2013-08-13 13:38:00,72.8,56.0,30.01,NNE,21,3.0,-999.0,55,-99.99,,,0.00,weatherlink.com 1.10,2013-08-13 18:38:00,
2013-08-13 13:53:00,72.3,56.0,30.02,NNW,333,0.0,-999.0,56,-99.99,,,0.00,weatherlink.com 1.10,2013-08-13 18:53:00,
2013-08-13 14:22:00,72.0,55.0,30.02,North,360,5.0,-999.0,56,-99.99,,,0.00,weatherlink.com 1.10,2013-08-13 19:22:00,
2013-08-13 14:37:00,72.8,54.0,30.02,NW,322,0.0,-999.0,52,-99.99,,,0.00,weatherlink.com 1.10,2013-08-13 19:37:00,
2013-08-13 14:52:00,72.6,54.0,30.02,NNW,346,12.0,-999.0,53,-99.99,,,0.00,weatherlink.com 1.10,2013-08-13 19:52:00,
2013-08-13 15:07:00,72.5,54.0,30.02,NW,316,1.0,-999.0,52,-99.99,,,0.00,weatherlink.com 1.10,2013-08-13 20:07:00,
2013-08-13 15:22:00,72.1,52.0,30.02,NNE,16,3.0,-999.0,50,-99.99,,,0.00,weatherlink.com 1.10,2013-08-13 20:22:00,
2013-08-13 15:37:00,72.4,54.0,30.02,NNE,23,8.0,-999.0,52,-99.99,,,0.00,weatherlink.com 1.10,2013-08-13 20:37:00,
2013-08-13 15:52:00,71.9,53.0,30.02,North,5,2.0,-999.0,52,-99.99,,,0.00,weatherlink.com 1.10,2013-08-13 20:52:00,
2013-08-13 16:07:00,71.5,54.0,30.02,NE,34,7.0,-999.0,55,-99.99,,,0.00,weatherlink.com 1.10,2013-08-13 21:07:00,
2013-08-13 16:22:00,71.1,53.0,30.02,NNE,28,7.0,-999.0,54,-99.99,,,0.00,weatherlink.com 1.10,2013-08-13 21:22:00,
2013-08-13 16:37:00,70.6,54.0,30.01,NNE,33,2.0,-999.0,55,-99.99,,,0.00,weatherlink.com 1.10,2013-08-13 21:37:00,
2013-08-13 16:52:00,70.2,54.0,30.02,NNE,17,5.0,-999.0,56,-99.99,,,0.00,weatherlink.com 1.10,2013-08-13 21:52:00,
2013-08-13 17:07:00,70.5,52.0,30.02,North,10,0.0,-999.0,53,-99.99,,,0.00,weatherlink.com 1.10,2013-08-13 22:07:00,
2013-08-13 17:23:00,70.5,52.0,30.02,North,11,0.0,-999.0,52,-99.99,,,0.00,weatherlink.com 1.10,2013-08-13 22:23:00,
2013-08-13 17:38:00,70.1,52.0,30.02,ENE,60,7.0,-999.0,52,-99.99,,,0.00,weatherlink.com 1.10,2013-08-13 22:38:00,
2013-08-13 17:53:00,69.5,51.0,30.02,NE,38,6.0,-999.0,53,-99.99,,,0.00,weatherlink.com 1.10,2013-08-13 22:53:00,
2013-08-13 18:07:00,69.2,51.0,30.02,NNE,22,3.0,-999.0,53,-99.99,,,0.00,weatherlink.com 1.10,2013-08-13 23:07:00,
2013-08-13 18:22:00,68.5,51.0,30.02,NE,39,0.0,-999.0,54,-99.99,,,0.00,weatherlink.com 1.10,2013-08-13 23:22:00,
2013-08-13 18:37:00,67.6,54.0,30.03,NE,52,0.0,-999.0,61,-99.99,,,0.00,weatherlink.com 1.10,2013-08-13 23:37:00,
2013-08-13 18:52:00,66.6,53.0,30.03,ENE,60,0.0,-999.0,63,-99.99,,,0.00,weatherlink.com 1.10,2013-08-13 23:52:00,
2013-08-13 19:07:00,65.8,54.0,30.03,NE,47,12.0,-999.0,66,-99.99,,,0.00,weatherlink.com 1.10,2013-08-14 00:07:00,
2013-08-13 19:22:00,65.2,54.0,30.04,NE,50,0.0,-999.0,67,-99.99,,,0.00,weatherlink.com 1.10,2013-08-14 00:22:00,
2013-08-13 19:37:00,64.4,54.0,30.04,NE,45,0.0,-999.0,69,-99.99,,,0.00,weatherlink.com 1.10,2013-08-14 00:37:00,
2013-08-13 19:52:00,63.7,53.0,30.04,NNE,28,0.0,-999.0,69,-99.99,,,0.00,weatherlink.com 1.10,2013-08-14 00:52:00,
2013-08-13 20:08:00,63.1,52.0,30.05,NNE,32,0.0,-999.0,68,-99.99,,,0.00,weatherlink.com 1.10,2013-08-14 01:08:00,
2013-08-13 20:23:00,62.3,52.0,30.05,North,9,5.0,-999.0,68,-99.99,,,0.00,weatherlink.com 1.10,2013-08-14 01:23:00,
2013-08-13 20:38:00,61.6,51.0,30.05,NNE,19,0.0,-999.0,68,-99.99,,,0.00,weatherlink.com 1.10,2013-08-14 01:38:00,
2013-08-13 20:53:00,60.9,51.0,30.06,NNE,18,0.0,-999.0,69,-99.99,,,0.00,weatherlink.com 1.10,2013-08-14 01:53:00,
2013-08-13 21:08:00,60.2,50.0,30.06,NNE,18,0.0,-999.0,70,-99.99,,,0.00,weatherlink.com 1.10,2013-08-14 02:08:00,
2013-08-13 21:24:00,59.0,50.0,30.07,NNE,18,0.0,-999.0,72,-99.99,,,0.00,weatherlink.com 1.10,2013-08-14 02:24:00,
2013-08-13 21:39:00,59.0,50.0,30.07,NNE,18,0.0,-999.0,72,-99.99,,,0.00,weatherlink.com 1.10,2013-08-14 02:39:00,
2013-08-13 21:54:00,58.8,51.0,30.08,NNE,18,0.0,-999.0,74,-99.99,,,0.00,weatherlink.com 1.10,2013-08-14 02:54:00,
2013-08-13 22:08:00,58.9,50.0,30.08,NNE,20,0.0,-999.0,72,-99.99,,,0.00,weatherlink.com 1.10,2013-08-14 03:08:00,
2013-08-13 22:23:00,58.6,50.0,30.08,NNE,20,0.0,-999.0,72,-99.99,,,0.00,weatherlink.com 1.10,2013-08-14 03:23:00,
2013-08-13 22:38:00,58.1,49.0,30.09,NNE,20,0.0,-999.0,73,-99.99,,,0.00,weatherlink.com 1.10,2013-08-14 03:38:00,
2013-08-13 22:53:00,57.7,49.0,30.09,NNE,20,0.0,-999.0,74,-99.99,,,0.00,weatherlink.com 1.10,2013-08-14 03:53:00,
2013-08-13 23:08:00,57.3,49.0,30.09,NNE,20,0.0,-999.0,75,-99.99,,,0.00,weatherlink.com 1.10,2013-08-14 04:08:00,
2013-08-13 23:23:00,57.2,49.0,30.10,NNE,20,0.0,-999.0,75,-99.99,,,0.00,weatherlink.com 1.10,2013-08-14 04:23:00,
2013-08-13 23:38:00,57.0,49.0,30.10,NNE,20,0.0,-999.0,75,-99.99,,,0.00,weatherlink.com 1.10,2013-08-14 04:38:00,
2013-08-13 23:53:00,56.4,49.0,30.10,NNE,20,0.0,-999.0,77,-99.99,,,0.00,weatherlink.com 1.10,2013-08-14 04:53:00,